Meadville, PA

9:00 AM EST on December 06, 2019 (GMT -0500)
Port Meadville

Weather History for KGKJ - October, 2019

Change the Weather History Date:

Wednesday, October 9, 2019

  Actual Average Record
Temperature  
Mean Temperature 56 °F -  
Max Temperature 66 °F 64 °F 84 °F (1949)
Min Temperature 45 °F 41 °F 29 °F (1952)
Degree Days  
Heating Degree Days 10    
Growing Degree Days 6 (Base 50)    
Moisture  
Dew Point 40 °F    
Average Humidity 64    
Maximum Humidity 80    
Minimum Humidity 33    
Precipitation  
Precipitation 0.00 in - - ()
Sea Level Pressure  
Sea Level Pressure 30.26 in    
Wind  
Wind Speed 5 mph ()    
Max Wind Speed 9 mph    
Max Gust Speed -    
Visibility 10.0 miles    
Events      
Averages and records for this station are not official NWS values.
T = Trace of Precipitation, MM = Missing Value Source: Averaged Metar Reports

Daily Weather History Graph

Daily Weather History Graph

Search for Another Location

Airport or City:

Astronomy

Oct. 09, 2019 Rise Set
Actual Time 7:26 AM EDT 6:49 PM EDT
Civil Twilight 6:58 AM EDT 7:17 PM EDT
Nautical Twilight 6:26 AM EDT 7:49 PM EDT
Astronomical Twilight 5:53 AM EDT 8:21 PM EDT
Moon 5:24 PM EDT (10/9) 3:06 AM EDT (10/9)
Length of Visible Light 12h 19m
Length of Day
11h 23m
Waxing Gibbous, 85% of the Moon is Illuminated
Oct 9
Waxing Gibbous
Oct 13
Full
Oct 21
Last Quarter
Oct 27
New
Nov 4
First Quarter

Hourly Weather History & Observations

Time (EDT) Temp. Windchill Dew Point Humidity Pressure Visibility Wind Dir Wind Speed Gust Speed Precip Events Conditions
12:53 AM 50.0 °F - 43.0 °F 77% 30.26 in 10.0 mi East 5.8 mph - N/A   Clear
1:53 AM 48.9 °F - 42.1 °F 77% 30.26 in 10.0 mi East 4.6 mph - N/A   Clear
2:53 AM 48.0 °F - 42.1 °F 80% 30.25 in 10.0 mi East 8.1 mph - N/A   Clear
3:53 AM 46.9 °F - 41.0 °F 80% 30.25 in 10.0 mi East 8.1 mph - N/A   Clear
4:53 AM 46.0 °F 43.9 °F 39.9 °F 79% 30.26 in 10.0 mi East 4.6 mph - N/A   Clear
5:53 AM 46.0 °F 43.9 °F 39.0 °F 76% 30.27 in 10.0 mi East 4.6 mph - N/A   Clear
6:53 AM 45.0 °F 41.8 °F 39.0 °F 80% 30.29 in 10.0 mi East 5.8 mph - N/A   Clear
7:53 AM 45.0 °F 41.2 °F 39.0 °F 80% 30.30 in 10.0 mi East 6.9 mph - N/A   Clear
8:53 AM 48.0 °F - 39.9 °F 74% 30.31 in 10.0 mi East 6.9 mph - N/A   Clear
9:53 AM 52.0 °F - 42.1 °F 69% 30.31 in 10.0 mi East 6.9 mph - N/A   Clear
10:53 AM 57.0 °F - 44.1 °F 62% 30.30 in 10.0 mi East 6.9 mph - N/A   Clear
11:53 AM 60.1 °F - 43.0 °F 53% 30.29 in 10.0 mi East 9.2 mph - N/A   Clear
12:53 PM 61.0 °F - 39.0 °F 44% 30.27 in 10.0 mi East 5.8 mph - N/A   Clear
1:53 PM 64.0 °F - 39.9 °F 41% 30.25 in 10.0 mi Variable 3.5 mph - N/A   Clear
3:53 PM 66.0 °F - 37.0 °F 34% 30.22 in 10.0 mi Variable 4.6 mph - N/A   Clear
4:53 PM 66.0 °F - 36.0 °F 33% 30.21 in 10.0 mi East 4.6 mph - N/A   Clear
5:53 PM 64.9 °F - 37.9 °F 37% 30.21 in 10.0 mi East 4.6 mph - N/A   Clear
6:53 PM 57.0 °F - 39.9 °F 53% 30.22 in 10.0 mi East 3.5 mph - N/A   Clear
7:53 PM 55.9 °F - 39.9 °F 55% 30.23 in 10.0 mi East 4.6 mph - N/A   Clear
8:53 PM 51.1 °F - 41.0 °F 68% 30.25 in 10.0 mi Calm Calm - N/A   Clear
9:53 PM 48.9 °F - 42.1 °F 77% 30.25 in 10.0 mi Calm Calm - N/A   Clear
10:53 PM 46.9 °F - 39.0 °F 74% 30.25 in 10.0 mi Calm Calm - N/A   Clear
11:53 PM 52.0 °F - 37.9 °F 59% 30.24 in 10.0 mi Variable 3.5 mph - N/A   Clear